York, PA

3:39 AM EST on December 11, 2019 (GMT -0500)
York

Weather History for KTHV - October, 2019

Change the Weather History Date:

Sunday, October 13, 2019

  Actual Average Record
Temperature  
Mean Temperature 48 °F -  
Max Temperature 64 °F 0 °F 81 °F (2001)
Min Temperature 33 °F - 28 °F (2012)
Degree Days  
Heating Degree Days 16    
Moisture  
Dew Point 38 °F    
Average Humidity 65    
Maximum Humidity 92    
Minimum Humidity 37    
Precipitation  
Precipitation 0.00 in - - ()
Sea Level Pressure  
Sea Level Pressure 30.07 in    
Wind  
Wind Speed 2 mph ()    
Max Wind Speed 12 mph    
Max Gust Speed 18 mph    
Visibility 10.0 miles    
Events      
Averages and records for this station are not official NWS values.
T = Trace of Precipitation, MM = Missing Value Source: Averaged Metar Reports

Daily Weather History Graph

Daily Weather History Graph

Search for Another Location

Airport or City:

Astronomy

Oct. 13, 2019 Rise Set
Actual Time 7:15 AM EDT 6:31 PM EDT
Civil Twilight 6:48 AM EDT 6:58 PM EDT
Nautical Twilight 6:16 AM EDT 7:29 PM EDT
Astronomical Twilight 5:45 AM EDT 8:01 PM EDT
Moon 6:52 PM EDT (10/13) 6:47 AM EDT (10/13)
Length of Visible Light 12h 10m
Length of Day
11h 15m
Full, 100% of the Moon is Illuminated
Oct 13
Full
Oct 13
Full
Oct 21
Last Quarter
Oct 27
New
Nov 4
First Quarter

Hourly Weather History & Observations

Time (EDT) Temp. Windchill Dew Point Humidity Pressure Visibility Wind Dir Wind Speed Gust Speed Precip Events Conditions
12:53 AM 39.9 °F 37.8 °F 37.0 °F 89% 30.09 in 10.0 mi SW 3.5 mph - N/A   Clear
1:53 AM 41.0 °F 38.0 °F 36.0 °F 82% 30.09 in 10.0 mi WNW 4.6 mph - N/A   Clear
2:53 AM 37.0 °F - 34.0 °F 89% 30.09 in 10.0 mi Calm Calm - N/A   Clear
3:53 AM 35.1 °F - 32.0 °F 89% 30.09 in 10.0 mi Calm Calm - N/A   Clear
4:53 AM 33.1 °F - 30.9 °F 92% 30.11 in 10.0 mi Calm Calm - N/A   Clear
5:53 AM 33.1 °F - 30.9 °F 92% 30.12 in 10.0 mi Calm Calm - N/A   Clear
6:53 AM 34.0 °F 31.0 °F 30.9 °F 89% 30.13 in 10.0 mi West 3.5 mph - N/A   Clear
7:53 AM 35.1 °F - 32.0 °F 89% 30.15 in 10.0 mi Calm Calm - N/A   Scattered Clouds
8:53 AM 41.0 °F - 37.9 °F 89% 30.15 in 9.0 mi Calm Calm - N/A   Partly Cloudy
9:53 AM 48.9 °F - 39.0 °F 69% 30.12 in 10.0 mi ESE 3.5 mph - N/A   Clear
10:53 AM 55.0 °F - 37.0 °F 51% 30.13 in 10.0 mi Calm Calm - N/A   Scattered Clouds
11:53 AM 57.9 °F - 36.0 °F 44% 30.11 in 10.0 mi ESE 4.6 mph - N/A   Partly Cloudy
12:53 PM 62.1 °F - 36.0 °F 38% 30.09 in 10.0 mi Variable 3.5 mph - N/A   Mostly Cloudy
1:53 PM 63.0 °F - 36.0 °F 37% 30.07 in 10.0 mi SSW 4.6 mph - N/A   Mostly Cloudy
2:53 PM 64.0 °F - 37.0 °F 37% 30.04 in 10.0 mi SE 6.9 mph - N/A   Overcast
3:53 PM 63.0 °F - 39.9 °F 43% 30.03 in 10.0 mi SE 4.6 mph - N/A   Overcast
4:53 PM 63.0 °F - 41.0 °F 45% 30.03 in 10.0 mi Variable 3.5 mph - N/A   Overcast
5:53 PM 61.0 °F - 43.0 °F 52% 30.02 in 10.0 mi SSE 11.5 mph 18.4 mph N/A   Overcast
6:53 PM 60.1 °F - 44.1 °F 55% 30.03 in 10.0 mi SSE 10.4 mph - N/A   Overcast
7:53 PM 60.1 °F - 43.0 °F 53% 30.02 in 10.0 mi SSE 5.8 mph - N/A   Overcast
8:30 PM 60.1 °F - 42.1 °F 51% 30.00 in 10.0 mi SSE 5.8 mph - N/A   Overcast
8:53 PM 60.1 °F - 43.0 °F 53% 30.03 in 10.0 mi Calm Calm - N/A   Overcast
9:53 PM 59.0 °F - 45.0 °F 60% 30.02 in 10.0 mi Calm Calm - N/A   Overcast
10:53 PM 57.9 °F - 46.9 °F 67% 30.01 in 10.0 mi Calm Calm - N/A   Overcast
11:53 PM 53.1 °F - 46.0 °F 77% 30.01 in 10.0 mi Calm Calm - N/A   Mostly Cloudy